�������l�o���
Date,Time,MP-1(��Sv/h),MP-2(��Sv/h),MP-3(��Sv/h),MP-4(��Sv/h),MP-5(��Sv/h),MP-6(��Sv/h),MP-7(��Sv/h),MP-8(��Sv/h),����,����(m/s),���J
2019/04/17,00:00,0.761,1.111,0.768,1.417,1.035,0.438,0.771,0.730,��쐼,3.9,��
2019/04/17,00:10,0.759,1.112,0.766,1.418,1.037,0.437,0.771,0.731,��쐼,3.7,��
2019/04/17,00:20,0.762,1.112,0.767,1.416,1.034,0.437,0.771,0.731,��쐼,4.4,��
2019/04/17,00:30,0.764,1.113,0.767,1.417,1.034,0.437,0.771,0.730,��쐼,4.9,��
2019/04/17,00:40,0.763,1.115,0.768,1.416,1.035,0.437,0.770,0.731,��쐼,3.4,��
2019/04/17,00:50,0.760,1.113,0.769,1.418,1.037,0.437,0.770,0.732,��쐼,4.1,��
2019/04/17,01:00,0.762,1.112,0.768,1.417,1.037,0.436,0.770,0.731,��쐼,4.1,��
2019/04/17,01:10,0.763,1.109,0.766,1.419,1.034,0.437,0.772,0.728,��쐼,3.6,��
2019/04/17,01:20,0.762,1.112,0.768,1.419,1.033,0.438,0.771,0.731,��쐼,3.3,��
2019/04/17,01:30,0.761,1.113,0.767,1.417,1.033,0.437,0.772,0.729,��쐼,4.9,��
2019/04/17,01:40,0.762,1.112,0.769,1.420,1.035,0.436,0.774,0.731,��쐼,5.9,��
2019/04/17,01:50,0.761,1.113,0.767,1.418,1.034,0.438,0.772,0.729,��쐼,6.1,��
2019/04/17,02:00,0.760,1.111,0.768,1.422,1.033,0.436,0.771,0.731,��쐼,5.7,��
2019/04/17,02:10,0.761,1.110,0.766,1.417,1.033,0.436,0.773,0.730,��쐼,5.3,��
2019/04/17,02:20,0.761,1.113,0.766,1.419,1.035,0.438,0.773,0.729,��쐼,4.5,��
2019/04/17,02:30,0.761,1.113,0.769,1.418,1.033,0.436,0.771,0.732,�쐼,4.8,��
2019/04/17,02:40,0.764,1.112,0.768,1.419,1.033,0.437,0.771,0.730,��쐼,5.3,��
2019/04/17,02:50,0.762,1.112,0.769,1.420,1.035,0.436,0.771,0.731,��쐼,3.0,��
2019/04/17,03:00,0.763,1.114,0.765,1.417,1.032,0.436,0.771,0.730,��쓌,2.0,��
2019/04/17,03:10,0.763,1.111,0.766,1.417,1.036,0.437,0.769,0.731,��쓌,1.7,��
2019/04/17,03:20,0.764,1.110,0.765,1.415,1.034,0.437,0.770,0.729,��쓌,1.7,��
2019/04/17,03:30,0.762,1.112,0.766,1.416,1.034,0.437,0.769,0.730,�쐼,2.0,��
2019/04/17,03:40,0.762,1.112,0.767,1.418,1.031,0.434,0.772,0.730,�쐼,0.9,��
2019/04/17,03:50,0.762,1.111,0.768,1.417,1.034,0.437,0.772,0.731,��쐼,1.4,��
2019/04/17,04:00,0.759,1.111,0.767,1.418,1.035,0.436,0.771,0.730,�쓌,1.7,��
2019/04/17,04:10,0.761,1.111,0.767,1.416,1.034,0.436,0.770,0.730,��쓌,2.6,��
2019/04/17,04:20,0.762,1.112,0.767,1.416,1.033,0.436,0.772,0.731,��쓌,3.3,��
2019/04/17,04:30,0.759,1.109,0.764,1.417,1.033,0.435,0.769,0.729,��,3.3,��
2019/04/17,04:40,0.761,1.110,0.767,1.416,1.031,0.437,0.770,0.730,��쐼,5.2,��
2019/04/17,04:50,0.760,1.111,0.765,1.417,1.033,0.436,0.770,0.729,�쐼,4.5,��
2019/04/17,05:00,0.760,1.111,0.766,1.418,1.032,0.435,0.770,0.729,�쐼,4.4,��
2019/04/17,05:10,0.760,1.111,0.766,1.416,1.034,0.436,0.771,0.729,��쐼,1.4,��
2019/04/17,05:20,0.760,1.110,0.766,1.419,1.031,0.436,0.771,0.728,��쐼,0.8,��
2019/04/17,05:30,0.760,1.110,0.766,1.417,1.034,0.436,0.769,0.731,��쐼,3.1,��
2019/04/17,05:40,0.761,1.113,0.766,1.417,1.032,0.436,0.770,0.730,��쐼,4.8,��
2019/04/17,05:50,0.762,1.112,0.766,1.418,1.035,0.436,0.770,0.729,��쐼,4.3,��
2019/04/17,06:00,0.762,1.109,0.767,1.418,1.031,0.434,0.772,0.730,�쓌,0.6,��
2019/04/17,06:10,0.761,1.113,0.766,1.418,1.032,0.437,0.772,0.730,��쐼,2.9,��
2019/04/17,06:20,0.762,1.113,0.766,1.417,1.034,0.437,0.769,0.731,��쐼,2.3,��
2019/04/17,06:30,0.760,1.113,0.768,1.419,1.034,0.436,0.770,0.730,�쓌,0.9,��
2019/04/17,06:40,0.760,1.114,0.766,1.417,1.034,0.437,0.771,0.730,-,CALM,��
2019/04/17,06:50,0.761,1.112,0.766,1.419,1.033,0.436,0.774,0.733,-,CALM,��
2019/04/17,07:00,0.760,1.110,0.767,1.420,1.032,0.437,0.771,0.731,���쓌,1.4,��
2019/04/17,07:10,0.761,1.114,0.767,1.420,1.038,0.437,0.773,0.731,��,1.7,��
2019/04/17,07:20,0.763,1.113,0.767,1.419,1.034,0.436,0.773,0.729,���쓌,1.1,��
2019/04/17,07:30,0.763,1.112,0.767,1.420,1.036,0.434,0.774,0.731,��,2.3,��
2019/04/17,07:40,0.762,1.114,0.768,1.422,1.037,0.435,0.774,0.733,��,1.4,��
2019/04/17,07:50,0.762,1.112,0.767,1.420,1.038,0.436,0.773,0.732,��,1.7,��
2019/04/17,08:00,0.762,1.113,0.770,1.418,1.035,0.435,0.772,0.734,��,1.7,��
2019/04/17,08:10,0.764,1.113,0.769,1.420,1.034,0.435,0.773,0.732,��,1.7,��
2019/04/17,08:20,0.762,1.114,0.767,1.419,1.036,0.434,0.772,0.732,���쓌,1.2,��
2019/04/17,08:30,0.763,1.110,0.769,1.423,1.036,0.435,0.772,0.732,��쓌,1.5,��
2019/04/17,08:40,0.762,1.110,0.768,1.419,1.036,0.435,0.770,0.732,��쓌,1.2,��
2019/04/17,08:50,0.764,1.112,0.770,1.420,1.034,0.436,0.773,0.729,��쓌,1.2,��
2019/04/17,09:00,0.764,1.111,0.767,1.420,1.036,0.435,0.771,0.730,��쓌,1.5,��
2019/04/17,09:10,0.765,1.109,0.768,1.421,1.036,0.436,0.772,0.730,-,CALM,��
2019/04/17,09:20,0.764,1.106,0.770,1.418,1.037,0.437,0.771,0.729,��,0.9,��
2019/04/17,09:30,0.766,1.114,0.770,1.418,1.038,0.437,0.771,0.729,�쓌,2.2,��
2019/04/17,09:40,0.764,1.110,0.768,1.419,1.040,0.435,0.771,0.729,��,1.5,��
2019/04/17,09:50,0.762,1.110,0.770,1.420,1.038,0.437,0.770,0.730,���쓌,0.8,��
2019/04/17,10:00,0.763,1.114,0.770,1.418,1.039,0.434,0.771,0.729,�쓌,1.2,��
2019/04/17,10:10,0.763,1.115,0.769,1.420,1.036,0.436,0.771,0.729,�쓌,1.2,��
2019/04/17,10:20,0.763,1.113,0.769,1.422,1.037,0.436,0.772,0.728,���쓌,1.7,��
2019/04/17,10:30,0.764,1.112,0.768,1.421,1.036,0.436,0.772,0.729,���쓌,1.5,��
2019/04/17,10:40,0.763,1.113,0.769,1.420,1.036,0.436,0.771,0.729,���쓌,1.4,��
2019/04/17,10:50,0.762,1.113,0.768,1.420,1.038,0.437,0.771,0.728,�쓌,2.0,��
2019/04/17,11:00,0.763,1.112,0.769,1.424,1.038,0.436,0.772,0.729,��쓌,3.7,��
2019/04/17,11:10,0.767,1.114,0.768,1.424,1.038,0.436,0.772,0.728,��쓌,4.3,��
2019/04/17,11:20,0.760,1.115,0.769,1.424,1.037,0.436,0.774,0.729,��쓌,5.0,��
2019/04/17,11:30,0.765,1.117,0.767,1.422,1.038,0.435,0.773,0.730,��쓌,5.6,��
2019/04/17,11:40,0.760,1.113,0.766,1.423,1.039,0.436,0.773,0.729,��쓌,7.0,��
2019/04/17,11:50,0.760,1.115,0.767,1.424,1.040,0.436,0.773,0.730,��쓌,8.0,��
2019/04/17,12:00,0.762,1.112,0.767,1.423,1.039,0.437,0.772,0.730,��쓌,7.0,��
2019/04/17,12:10,0.762,1.116,0.767,1.423,1.039,0.436,0.773,0.729,��쓌,7.3,��
2019/04/17,12:20,0.764,1.116,0.768,1.422,1.040,0.438,0.773,0.729,��,6.7,��
2019/04/17,12:30,0.763,1.116,0.768,1.423,1.040,0.436,0.775,0.729,��,7.4,��
2019/04/17,12:40,0.764,1.117,0.769,1.424,1.038,0.437,0.773,0.730,��,7.2,��
2019/04/17,12:50,0.765,1.116,0.768,1.424,1.042,0.436,0.773,0.730,��,8.3,��
2019/04/17,13:00,0.764,1.117,0.768,1.424,1.038,0.439,0.773,0.731,��,9.1,��
2019/04/17,13:10,0.764,1.117,0.767,1.424,1.041,0.437,0.772,0.730,��,8.9,��
2019/04/17,13:20,0.765,1.114,0.768,1.424,1.039,0.437,0.773,0.729,��,8.8,��
2019/04/17,13:30,0.763,1.114,0.770,1.424,1.040,0.437,0.774,0.730,��,9.4,��
2019/04/17,13:40,0.764,1.111,0.765,1.424,1.038,0.436,0.773,0.728,��쓌,10.9,��
2019/04/17,13:50,0.764,1.114,0.767,1.423,1.040,0.437,0.775,0.731,��,12.5,��
2019/04/17,14:00,0.762,1.115,0.770,1.425,1.042,0.436,0.774,0.731,��,12.0,��
2019/04/17,14:10,0.763,1.112,0.768,1.426,1.040,0.438,0.774,0.731,��,9.7,��
2019/04/17,14:20,0.765,1.118,0.769,1.423,1.041,0.435,0.773,0.729,��쓌,10.0,��
2019/04/17,14:30,0.762,1.117,0.768,1.422,1.042,0.438,0.776,0.732,��쓌,10.2,��
2019/04/17,14:40,0.766,1.116,0.769,1.427,1.040,0.438,0.774,0.730,��,10.9,��
2019/04/17,14:50,0.765,1.117,0.769,1.423,1.041,0.437,0.774,0.731,��,12.4,��
2019/04/17,15:00,0.765,1.118,0.767,1.423,1.040,0.439,0.772,0.732,��,11.3,��
2019/04/17,15:10,0.765,1.117,0.770,1.426,1.041,0.438,0.774,0.729,��,10.2,��
2019/04/17,15:20,0.766,1.118,0.768,1.424,1.041,0.438,0.774,0.729,��,9.4,��
2019/04/17,15:30,0.766,1.120,0.771,1.424,1.040,0.438,0.774,0.731,��,9.7,��
2019/04/17,15:40,0.766,1.115,0.770,1.426,1.041,0.440,0.773,0.730,��,10.2,��
2019/04/17,15:50,0.766,1.121,0.773,1.427,1.040,0.441,0.773,0.729,��쓌,10.2,��
2019/04/17,16:00,0.767,1.123,0.773,1.425,1.040,0.442,0.775,0.730,��,10.0,��
2019/04/17,16:10,0.769,1.121,0.773,1.425,1.041,0.441,0.772,0.730,��,10.5,��
2019/04/17,16:20,0.769,1.120,0.772,1.426,1.040,0.440,0.773,0.732,��,9.6,��
2019/04/17,16:30,0.768,1.123,0.771,1.425,1.042,0.439,0.773,0.731,��,10.9,��
2019/04/17,16:40,0.769,1.119,0.772,1.427,1.040,0.440,0.773,0.733,��,9.8,��
2019/04/17,16:50,0.769,1.122,0.771,1.426,1.040,0.439,0.773,0.732,��,10.6,��
2019/04/17,17:00,0.768,1.122,0.771,1.425,1.039,0.439,0.774,0.733,��,8.8,��
2019/04/17,17:10,0.769,1.122,0.772,1.426,1.043,0.439,0.774,0.732,��,9.6,��
2019/04/17,17:20,0.767,1.120,0.773,1.426,1.040,0.439,0.775,0.734,��,10.7,��
2019/04/17,17:30,0.769,1.123,0.774,1.425,1.040,0.440,0.772,0.731,��,9.5,��
2019/04/17,17:40,0.769,1.121,0.774,1.426,1.042,0.442,0.773,0.731,��,9.3,��
2019/04/17,17:50,0.768,1.119,0.772,1.425,1.041,0.441,0.773,0.733,��,10.2,��
2019/04/17,18:00,0.768,1.120,0.771,1.424,1.039,0.442,0.773,0.733,��,8.2,��
2019/04/17,18:10,0.769,1.120,0.773,1.425,1.043,0.441,0.773,0.732,��,8.8,��
2019/04/17,18:20,0.770,1.121,0.773,1.425,1.041,0.441,0.774,0.733,��,7.5,��
2019/04/17,18:30,0.770,1.124,0.774,1.424,1.039,0.442,0.773,0.733,��,7.6,��
2019/04/17,18:40,0.767,1.124,0.772,1.425,1.042,0.443,0.773,0.734,��,8.0,��
2019/04/17,18:50,0.770,1.123,0.775,1.425,1.043,0.442,0.778,0.734,��,6.7,��
2019/04/17,19:00,0.770,1.127,0.771,1.426,1.042,0.441,0.775,0.733,��,7.1,��
2019/04/17,19:10,0.767,1.124,0.773,1.427,1.042,0.443,0.775,0.735,��,7.5,��
2019/04/17,19:20,0.769,1.126,0.773,1.425,1.044,0.440,0.775,0.731,��,7.2,��
2019/04/17,19:30,0.768,1.126,0.774,1.426,1.046,0.441,0.775,0.734,��,7.8,��
2019/04/17,19:40,0.768,1.124,0.772,1.424,1.043,0.442,0.776,0.735,��,8.1,��
2019/04/17,19:50,0.766,1.126,0.773,1.427,1.045,0.443,0.776,0.732,��,7.0,��
2019/04/17,20:00,0.769,1.127,0.771,1.424,1.046,0.441,0.774,0.733,��,7.0,��
2019/04/17,20:10,0.766,1.124,0.774,1.424,1.042,0.441,0.774,0.732,��쐼,6.2,��
2019/04/17,20:20,0.767,1.124,0.772,1.425,1.044,0.441,0.775,0.734,��,5.4,��
2019/04/17,20:30,0.767,1.123,0.770,1.424,1.045,0.440,0.775,0.734,��,4.1,��
2019/04/17,20:40,0.768,1.124,0.773,1.424,1.045,0.441,0.776,0.732,��,5.3,��
2019/04/17,20:50,0.767,1.123,0.772,1.424,1.044,0.442,0.776,0.731,��,5.2,��
2019/04/17,21:00,0.768,1.125,0.771,1.423,1.045,0.440,0.775,0.733,��,5.2,��
2019/04/17,21:10,0.771,1.126,0.773,1.429,1.042,0.441,0.776,0.734,��,6.8,��
2019/04/17,21:20,0.769,1.123,0.773,1.426,1.042,0.442,0.775,0.731,��,7.4,��
2019/04/17,21:30,0.768,1.124,0.773,1.423,1.044,0.441,0.776,0.734,��,7.1,��
2019/04/17,21:40,0.767,1.123,0.772,1.424,1.042,0.440,0.774,0.734,��,6.4,��
2019/04/17,21:50,0.767,1.125,0.774,1.426,1.045,0.440,0.775,0.733,��,6.3,��
2019/04/17,22:00,0.767,1.123,0.773,1.425,1.042,0.440,0.774,0.732,��,6.5,��
2019/04/17,22:10,0.768,1.122,0.773,1.426,1.043,0.440,0.776,0.731,��,6.4,��
2019/04/17,22:20,0.769,1.122,0.772,1.423,1.042,0.440,0.775,0.732,��,6.7,��
2019/04/17,22:30,0.767,1.124,0.770,1.424,1.041,0.440,0.775,0.732,��,6.6,��
2019/04/17,22:40,0.769,1.122,0.772,1.424,1.042,0.440,0.777,0.732,��,5.8,��
2019/04/17,22:50,0.768,1.125,0.771,1.427,1.044,0.440,0.776,0.732,��,5.8,��
2019/04/17,23:00,0.768,1.124,0.771,1.424,1.041,0.439,0.776,0.732,��쐼,4.9,��
2019/04/17,23:10,0.769,1.124,0.772,1.425,1.041,0.439,0.776,0.732,��,5.2,��
2019/04/17,23:20,0.767,1.124,0.772,1.425,1.043,0.438,0.774,0.733,��,5.2,��
2019/04/17,23:30,0.767,1.122,0.769,1.426,1.042,0.440,0.776,0.732,��쐼,5.2,��
2019/04/17,23:40,0.768,1.125,0.773,1.424,1.044,0.439,0.775,0.732,��,5.0,��
2019/04/17,23:50,0.767,1.122,0.773,1.427,1.042,0.441,0.774,0.734,��쐼,4.8,��
